Weather History for KPIL - January, 2013

Change the Weather History Date:

Tuesday, January 29, 2013

  Actual Average Record
Temperature  
Mean Temperature 78 °F -  
Max Temperature 84 °F - - ()
Min Temperature 73 °F - - ()
Cooling Degree Days 14    
Growing Degree Days 28 (Base 50)    
Moisture  
Dew Point 69 °F    
Average Humidity 80    
Maximum Humidity 88    
Minimum Humidity 55    
Precipitation  
Precipitation 0.00 in - - ()
Sea Level Pressure  
Sea Level Pressure 29.77 in    
Wind  
Wind Speed 20 mph (South)    
Max Wind Speed 32 mph    
Max Gust Speed 47 mph    
Visibility 7 miles    
Events      
T = Trace of Precipitation, MM = Missing Value Source: NWS Daily Summary

Daily Weather History Graph

Daily Weather History Graph

Search for Another Location

Airport or City:

Trip Planner

Search our weather history database for the weather conditions in past years. The results will help you decide how hot, cold, wet, or windy it might be!

Date:

Astronomy

Jan. 29, 2013 Rise Set
Actual Time 7:14 AM CST 6:10 PM CST
Civil Twilight 6:50 AM CST 6:34 PM CST
Nautical Twilight 6:22 AM CST 7:02 PM CST
Astronomical Twilight 5:55 AM CST 7:29 PM CST
Moon 8:45 PM CST (1/29) 8:32 AM CST (1/29)
Length of Visible Light 11h 44m
Length of Day
10h 55m
Waning Gibbous, 93% of the Moon is Illuminated
Jan 29
Waning Gibbous
Feb 3
Last Quarter
Feb 10
New
Feb 17
First Quarter
Feb 25
Full

Hourly Weather History & Observations

Time (CST) Temp. Heat Index Dew Point Humidity Pressure Visibility Wind Dir Wind Speed Gust Speed Precip Events Conditions
12:41 AM 73.4 °F - 69.8 °F 88% 29.91 in 7.0 mi SSE 18.4 mph 28.8 mph N/A   Mostly Cloudy
12:53 AM 73.9 °F - 70.0 °F 87% 29.91 in 7.0 mi South 17.3 mph 25.3 mph N/A   Mostly Cloudy
1:20 AM 73.4 °F - 69.8 °F 88% 29.89 in 7.0 mi SSE 21.9 mph 27.6 mph N/A   Scattered Clouds
1:53 AM 75.0 °F - 70.0 °F 84% 29.88 in 7.0 mi South 21.9 mph 31.1 mph N/A   Mostly Cloudy
2:21 AM 73.4 °F - 69.8 °F 88% 29.86 in 7.0 mi SSE 20.7 mph 28.8 mph N/A   Scattered Clouds
2:53 AM 73.9 °F - 69.1 °F 85% 29.84 in 7.0 mi SSE 20.7 mph 32.2 mph N/A   Clear
3:32 AM 73.4 °F - 69.8 °F 88% 29.84 in 8.0 mi SSE 20.7 mph 29.9 mph N/A   Mostly Cloudy
3:53 AM 73.9 °F - 69.1 °F 85% 29.83 in 7.0 mi SSE 19.6 mph 29.9 mph N/A   Scattered Clouds
4:53 AM 73.9 °F - 69.1 °F 85% 29.83 in 7.0 mi South 18.4 mph 27.6 mph N/A   Mostly Cloudy
5:43 AM 73.4 °F - 69.8 °F 88% 29.84 in 7.0 mi South 17.3 mph - N/A   Scattered Clouds
5:53 AM 73.0 °F - 69.1 °F 87% 29.84 in 7.0 mi South 16.1 mph 21.9 mph N/A   Scattered Clouds
6:32 AM 73.4 °F - 69.8 °F 88% 29.83 in 7.0 mi South 20.7 mph 27.6 mph N/A   Mostly Cloudy
6:53 AM 73.0 °F - 69.1 °F 87% 29.83 in 7.0 mi South 20.7 mph 28.8 mph N/A   Overcast
7:53 AM 73.9 °F - 69.1 °F 85% 29.83 in 6.0 mi South 18.4 mph 27.6 mph N/A   Haze
8:01 AM 73.4 °F - 69.8 °F 88% 29.83 in 6.0 mi South 19.6 mph 29.9 mph N/A   Haze
8:11 AM 73.4 °F - 69.8 °F 88% 29.82 in 6.0 mi South 21.9 mph 29.9 mph N/A   Haze
8:29 AM 75.2 °F - 69.8 °F 83% 29.82 in 6.0 mi South 21.9 mph 33.4 mph N/A   Haze
8:39 AM 75.2 °F - 69.8 °F 83% 29.81 in 6.0 mi South 21.9 mph 32.2 mph N/A   Haze
8:53 AM 75.9 °F - 69.1 °F 79% 29.81 in 6.0 mi South 19.6 mph 35.7 mph N/A   Haze
9:53 AM 80.1 °F 82.7 °F 68.0 °F 67% 29.79 in 6.0 mi South 31.1 mph 40.3 mph N/A   Haze
10:46 AM 80.6 °F 83.9 °F 69.8 °F 70% 29.80 in 6.0 mi South 27.6 mph 47.2 mph N/A   Haze
10:53 AM 80.1 °F 82.9 °F 69.1 °F 69% 29.80 in 6.0 mi South 32.2 mph 47.2 mph N/A   Haze
11:53 AM 82.0 °F 85.5 °F 69.1 °F 65% 29.77 in 6.0 mi South 25.3 mph 40.3 mph N/A   Haze
12:53 PM 84.0 °F 87.0 °F 68.0 °F 58% 29.73 in 7.0 mi South 25.3 mph 40.3 mph N/A   Partly Cloudy
1:53 PM 84.9 °F 87.6 °F 66.9 °F 55% 29.69 in 7.0 mi South 23.0 mph 41.4 mph N/A   Clear
2:53 PM 84.0 °F 87.0 °F 68.0 °F 58% 29.66 in 7.0 mi South 29.9 mph 42.6 mph N/A   Clear
3:53 PM 82.9 °F 85.4 °F 66.9 °F 58% 29.66 in 7.0 mi South 24.2 mph 35.7 mph N/A   Clear
4:53 PM 80.1 °F 82.9 °F 69.1 °F 69% 29.66 in 7.0 mi South 21.9 mph 29.9 mph N/A   Clear
5:53 PM 78.1 °F - 69.1 °F 74% 29.66 in 6.0 mi South 17.3 mph 27.6 mph N/A   Haze
6:53 PM 77.0 °F - 70.0 °F 79% 29.68 in 7.0 mi South 18.4 mph 24.2 mph N/A   Scattered Clouds
7:03 PM 75.2 °F - 69.8 °F 83% 29.69 in 7.0 mi South 13.8 mph 24.2 mph N/A   Mostly Cloudy
7:23 PM 75.2 °F - 69.8 °F 83% 29.69 in 7.0 mi South 17.3 mph 24.2 mph N/A   Scattered Clouds
7:53 PM 75.9 °F - 70.0 °F 82% 29.67 in 7.0 mi South 19.6 mph 28.8 mph N/A   Clear
8:53 PM 75.9 °F - 70.0 °F 82% 29.70 in 7.0 mi South 13.8 mph 27.6 mph N/A   Scattered Clouds
9:02 PM 75.2 °F - 69.8 °F 83% 29.70 in 7.0 mi South 16.1 mph 27.6 mph N/A   Mostly Cloudy
9:50 PM 75.2 °F - 69.8 °F 83% 29.70 in 7.0 mi South 17.3 mph 27.6 mph N/A   Scattered Clouds
9:53 PM 75.9 °F - 70.0 °F 82% 29.70 in 7.0 mi South 17.3 mph 27.6 mph N/A   Mostly Cloudy
10:01 PM 75.2 °F - 69.8 °F 83% 29.70 in 7.0 mi South 13.8 mph - N/A   Scattered Clouds
10:09 PM 75.2 °F - 69.8 °F 83% 29.70 in 7.0 mi South 17.3 mph 25.3 mph N/A   Mostly Cloudy
10:53 PM 75.0 °F - 70.0 °F 84% 29.70 in 7.0 mi South 12.7 mph 21.9 mph N/A   Scattered Clouds
11:01 PM 75.2 °F - 69.8 °F 83% 29.69 in 7.0 mi South 16.1 mph - N/A   Mostly Cloudy
11:53 PM 75.0 °F - 70.0 °F 84% 29.68 in 7.0 mi South 15.0 mph 24.2 mph N/A   Mostly Cloudy